Simultaneous Nadir Overpasses (SNOs) Predictions

Prediction of SNOs between LANDSAT-8 and NOAA-19 Satellite Orbit:

Table of predicted SNOs for the next 14.0 days since TLE Epoch: 8/6/2022
Index Date (LANDSAT-8) Time (LANDSAT-8) Lat,Lon (LANDSAT-8) SZA (LANDSAT-8 ) Date (NOAA-19) Time (NOAA-19) Lat,Lon (NOAA-19) SZA (NOAA-19 ) Distance(km) Time Diff (sec)
1 08/08/2022 08:33:53 80.84, 87.73 66.42 08/08/2022 08:33:34 80.83, 87.82 66.41 2.30 19
2 08/10/2022 14:07:38 -80.85,-175.57 112.91 08/10/2022 14:06:32 -80.83,-175.69 112.97 2.95 66
3 08/10/2022 14:57:05 80.83, -8.22 67.06 08/10/2022 14:57:27 80.83, -8.19 67.07 0.62 22
4 08/12/2022 20:30:50 -80.84, 88.46 112.26 08/12/2022 20:30:25 -80.83, 88.43 112.28 0.96 25
5 08/12/2022 21:20:17 80.81,-104.20 67.71 08/12/2022 21:21:20 80.83,-104.21 67.75 1.87 63
6 08/15/2022 02:54:02 -80.82, -7.53 111.59 08/15/2022 02:54:18 -80.83, -7.50 111.57 1.27 16
7 08/17/2022 08:27:46 80.83, 89.11 69.14 08/17/2022 08:27:06 80.84, 89.25 69.15 2.57 40
8 08/17/2022 09:17:13 -80.83,-103.22 110.85 08/17/2022 09:18:10 -80.83,-103.11 110.81 2.02 57



Historial Predications of SNOs between LANDSAT-8 and NOAA-19
